Kokomo, IN

2:41 AM EST on February 23, 2018 (GMT -0500)
Kokomo Municipal

Weather History for KOKK - March, 2013

Change the Weather History Date:

Saturday, March 9, 2013

  Actual Average (KGUS) Record (KGUS)
Temperature  
Mean Temperature 37 °F -  
Max Temperature 44 °F 40 °F 68 °F (2016)
Min Temperature 30 °F 25 °F 14 °F (2003)
Degree Days  
Heating Degree Days 28    
Moisture  
Dew Point 31 °F    
Average Humidity 77    
Maximum Humidity 87    
Minimum Humidity 66    
Precipitation  
Precipitation 0.00 in - - ()
Sea Level Pressure  
Sea Level Pressure 30.15 in    
Wind  
Wind Speed 10 mph (SE)    
Max Wind Speed 15 mph    
Max Gust Speed 22 mph    
Visibility 10 miles    
Events      
Averages and records for this station are not official NWS values.
T = Trace of Precipitation, MM = Missing Value Source: NWS Daily Summary

Daily Weather History Graph

Daily Weather History Graph

Search for Another Location

Airport or City:

Trip Planner

Search our weather history database for the weather conditions in past years. The results will help you decide how hot, cold, wet, or windy it might be!

Date:

Astronomy

Mar. 09, 2013 Rise Set
Actual Time 6:05 AM CST 5:44 PM CST
Civil Twilight 5:37 AM CST 6:12 PM CST
Nautical Twilight 5:06 AM CST 6:43 PM CST
Astronomical Twilight 4:34 AM CST 7:15 PM CST
Moon 4:29 AM CST (3/9) 3:45 PM CST (3/9)
Length of Visible Light 12h 34m
Length of Day
11h 39m
Waning Crescent, 5% of the Moon is Illuminated
Mar 9
Waning Crescent
Mar 11
New
Mar 19
First Quarter
Mar 27
Full
Apr 2
Last Quarter

Hourly Weather History & Observations

Time (CST) Temp. Windchill Dew Point Humidity Pressure Visibility Wind Dir Wind Speed Gust Speed Precip Events Conditions
12:15 AM 30.2 °F 21.3 °F 24.8 °F 80% 30.33 in 10.0 mi ESE 10.4 mph - N/A   Clear
12:35 AM 30.2 °F 21.3 °F 24.8 °F 80% 30.33 in 10.0 mi ESE 10.4 mph - N/A   Clear
12:55 AM 30.2 °F 21.9 °F 24.8 °F 80% 30.33 in 10.0 mi SE 9.2 mph - N/A   Clear
1:15 AM 30.2 °F 21.3 °F 24.8 °F 80% 30.32 in 10.0 mi SE 10.4 mph - N/A   Clear
1:35 AM 30.2 °F 22.6 °F 24.8 °F 80% 30.32 in 10.0 mi SE 8.1 mph - N/A   Clear
1:55 AM 30.2 °F 23.4 °F 24.8 °F 80% 30.31 in 10.0 mi SE 6.9 mph - N/A   Clear
2:15 AM 30.2 °F 22.6 °F 24.8 °F 80% 30.30 in 10.0 mi ESE 8.1 mph - N/A   Clear
2:35 AM 32.0 °F 23.6 °F 24.8 °F 75% 30.29 in 10.0 mi SE 10.4 mph - N/A   Clear
2:55 AM 30.2 °F 21.3 °F 26.6 °F 86% 30.28 in 10.0 mi ESE 10.4 mph - N/A   Clear
3:15 AM 30.2 °F 21.3 °F 26.6 °F 86% 30.27 in 10.0 mi SE 10.4 mph - N/A   Clear
3:35 AM 30.2 °F 21.9 °F 26.6 °F 86% 30.28 in 10.0 mi SE 9.2 mph - N/A   Clear
3:55 AM 30.2 °F 21.9 °F 26.6 °F 86% 30.27 in 10.0 mi ESE 9.2 mph - N/A   Clear
4:15 AM 30.2 °F 22.6 °F 26.6 °F 86% 30.27 in 10.0 mi ESE 8.1 mph - N/A   Clear
4:35 AM 30.2 °F 20.8 °F 26.6 °F 86% 30.27 in 10.0 mi ESE 11.5 mph - N/A   Clear
4:55 AM 30.2 °F 20.8 °F 26.6 °F 86% 30.26 in 10.0 mi ESE 11.5 mph - N/A   Clear
5:15 AM 30.2 °F 20.8 °F 26.6 °F 86% 30.25 in 10.0 mi ESE 11.5 mph - N/A   Clear
5:35 AM 30.2 °F 21.3 °F 24.8 °F 80% 30.26 in 10.0 mi SE 10.4 mph - N/A   Clear
5:55 AM 30.2 °F 23.4 °F 26.6 °F 86% 30.27 in 10.0 mi SE 6.9 mph - N/A   Clear
6:15 AM 30.2 °F 24.3 °F 26.6 °F 86% 30.26 in 10.0 mi SE 5.8 mph - N/A   Scattered Clouds
6:35 AM 32.0 °F 23.6 °F 26.6 °F 80% 30.25 in 10.0 mi SE 10.4 mph - N/A   Scattered Clouds
6:55 AM 32.0 °F 24.8 °F 28.4 °F 87% 30.26 in 10.0 mi SSE 8.1 mph - N/A   Scattered Clouds
7:15 AM 33.8 °F 27.0 °F 28.4 °F 81% 30.27 in 10.0 mi SSE 8.1 mph - N/A   Partly Cloudy
7:35 AM 33.8 °F 27.0 °F 28.4 °F 81% 30.27 in 10.0 mi SSE 8.1 mph - N/A   Scattered Clouds
7:55 AM 33.8 °F 27.7 °F 28.4 °F 81% 30.27 in 10.0 mi SE 6.9 mph - N/A   Mostly Cloudy
8:15 AM 33.8 °F 26.4 °F 28.4 °F 81% 30.26 in 10.0 mi SE 9.2 mph - N/A   Partly Cloudy
8:35 AM 35.6 °F 27.5 °F 28.4 °F 75% 30.26 in 10.0 mi SE 11.5 mph - N/A   Scattered Clouds
8:55 AM 35.6 °F 28.0 °F 28.4 °F 75% 30.25 in 10.0 mi SE 10.4 mph - N/A   Scattered Clouds
9:15 AM 37.4 °F 31.4 °F 30.2 °F 75% 30.25 in 10.0 mi SSE 8.1 mph - N/A   Partly Cloudy
9:35 AM 37.4 °F 29.8 °F 30.2 °F 75% 30.25 in 10.0 mi SSE 11.5 mph - N/A   Scattered Clouds
9:55 AM 37.4 °F 30.8 °F 30.2 °F 75% 30.25 in 10.0 mi SSE 9.2 mph - N/A   Mostly Cloudy
10:15 AM 39.2 °F 33.0 °F 30.2 °F 70% 30.24 in 10.0 mi SSE 9.2 mph - N/A   Overcast
10:35 AM 39.2 °F 32.5 °F 32.0 °F 75% 30.23 in 10.0 mi SSE 10.4 mph - N/A   Overcast
10:55 AM 39.2 °F 31.6 °F 32.0 °F 75% 30.21 in 10.0 mi SSE 12.7 mph - N/A   Scattered Clouds
11:15 AM 39.2 °F 31.2 °F 30.2 °F 70% 30.20 in 10.0 mi SSE 13.8 mph - N/A   Clear
11:35 AM 41.0 °F 33.5 °F 32.0 °F 70% 30.19 in 10.0 mi SE 13.8 mph - N/A   Clear
11:55 AM 42.8 °F 35.8 °F 33.8 °F 70% 30.17 in 10.0 mi SE 13.8 mph - N/A   Clear
12:15 PM 42.8 °F 35.4 °F 33.8 °F 70% 30.17 in 10.0 mi SSE 15.0 mph 19.6 mph N/A   Clear
12:35 PM 42.8 °F 36.2 °F 32.0 °F 66% 30.15 in 10.0 mi SE 12.7 mph 20.7 mph N/A   Clear
12:55 PM 42.8 °F 35.4 °F 33.8 °F 70% 30.14 in 10.0 mi SSE 15.0 mph - N/A   Clear
1:15 PM 44.6 °F 38.1 °F 33.8 °F 66% 30.13 in 10.0 mi SSE 13.8 mph - N/A   Clear
1:35 PM 42.8 °F 36.2 °F 33.8 °F 70% 30.12 in 10.0 mi SSE 12.7 mph - N/A   Clear
1:55 PM 42.8 °F 36.2 °F 35.6 °F 76% 30.11 in 10.0 mi SE 12.7 mph - N/A   Clear
2:15 PM 44.6 °F 39.2 °F 35.6 °F 71% 30.10 in 10.0 mi SSE 10.4 mph - N/A   Clear
2:35 PM 42.8 °F 36.6 °F 35.6 °F 76% 30.09 in 10.0 mi SSE 11.5 mph - N/A   Scattered Clouds
2:55 PM 44.6 °F 38.1 °F 37.4 °F 76% 30.07 in 10.0 mi SE 13.8 mph - N/A   Partly Cloudy
3:15 PM 44.6 °F 38.8 °F 35.6 °F 71% 30.06 in 10.0 mi SE 11.5 mph 21.9 mph N/A   Partly Cloudy
3:35 PM 42.8 °F 36.2 °F 35.6 °F 76% 30.06 in 10.0 mi SE 12.7 mph 18.4 mph N/A   Mostly Cloudy
3:55 PM 42.8 °F 37.0 °F 35.6 °F 76% 30.06 in 10.0 mi SSE 10.4 mph - N/A   Overcast
4:15 PM 42.8 °F 36.2 °F 35.6 °F 76% 30.04 in 10.0 mi SE 12.7 mph - N/A   Overcast
4:35 PM 42.8 °F 37.5 °F 35.6 °F 76% 30.05 in 10.0 mi SE 9.2 mph - N/A   Overcast
4:55 PM 42.8 °F 38.0 °F 37.4 °F 81% 30.04 in 10.0 mi ESE 8.1 mph - N/A   Overcast
5:15 PM 42.8 °F 38.0 °F 37.4 °F 81% 30.04 in 10.0 mi ESE 8.1 mph - N/A   Overcast
5:35 PM 41.0 °F 34.7 °F 35.6 °F 81% 30.03 in 10.0 mi ESE 10.4 mph - N/A   Overcast
5:55 PM 41.0 °F 34.7 °F 35.6 °F 81% 30.02 in 10.0 mi SE 10.4 mph - N/A   Scattered Clouds
6:15 PM 39.2 °F 32.5 °F 35.6 °F 87% 30.02 in 10.0 mi SE 10.4 mph - N/A   Partly Cloudy
6:35 PM 39.2 °F 32.5 °F 33.8 °F 81% 30.01 in 10.0 mi ESE 10.4 mph - N/A   Partly Cloudy
6:55 PM 39.2 °F 33.0 °F 33.8 °F 81% 30.01 in 10.0 mi SE 9.2 mph - N/A   Clear
7:15 PM 37.4 °F 29.8 °F 33.8 °F 87% 30.00 in 10.0 mi SE 11.5 mph - N/A   Clear
7:35 PM 41.0 °F 33.9 °F 35.6 °F 81% 29.99 in 10.0 mi SSE 12.7 mph - N/A   Clear
7:55 PM 42.8 °F 35.4 °F 35.6 °F 76% 29.98 in 10.0 mi SSE 15.0 mph - N/A   Clear
8:15 PM 42.8 °F 36.2 °F 35.6 °F 76% 29.98 in 10.0 mi SSE 12.7 mph - N/A   Clear
8:35 PM 42.8 °F 36.2 °F 35.6 °F 76% 29.97 in 10.0 mi SSE 12.7 mph - N/A   Clear
8:55 PM 42.8 °F 36.6 °F 35.6 °F 76% 29.97 in 10.0 mi SSE 11.5 mph - N/A   Mostly Cloudy
9:15 PM 44.6 °F 38.1 °F 35.6 °F 71% 29.96 in 10.0 mi SSE 13.8 mph - N/A   Overcast
9:35 PM 44.6 °F 38.4 °F 35.6 °F 71% 29.96 in 10.0 mi South 12.7 mph - N/A   Overcast
9:55 PM 44.6 °F 38.1 °F 35.6 °F 71% 29.95 in 10.0 mi South 13.8 mph - N/A   Mostly Cloudy
10:15 PM 44.6 °F 38.4 °F 35.6 °F 71% 29.95 in 10.0 mi South 12.7 mph - N/A   Mostly Cloudy
10:35 PM 44.6 °F 38.8 °F 35.6 °F 71% 29.95 in 10.0 mi South 11.5 mph - N/A   Mostly Cloudy
10:55 PM 44.6 °F 38.4 °F 35.6 °F 71% 29.94 in 10.0 mi South 12.7 mph - N/A   Partly Cloudy
11:15 PM 44.6 °F 38.4 °F 35.6 °F 71% 29.93 in 10.0 mi South 12.7 mph - N/A   Partly Cloudy
11:35 PM 44.6 °F 38.1 °F 35.6 °F 71% 29.92 in 10.0 mi South 13.8 mph - N/A   Clear
11:55 PM 44.6 °F 39.2 °F 35.6 °F 71% 29.92 in 10.0 mi South 10.4 mph - N/A   Scattered Clouds